Location: Banios
(43.0451°N, 0.2335°E)
Time: 12:07:17
(UTC+00:00)

A-11 Canister half - Pass Details

Date: 09 May 2021
Orbit: 1513 x 1686 km, 47.2° (Epoch: 14 June)

Event Time Altitude Azimuth Distance (km) Brightness Sun altitude
Rises 19:02:00 0° 280° (W) 4,656 13.6 0.4°
Reaches altitude 10° 19:05:02 10° 283° (WNW) 3,678 12.9 -0.1°
Maximum altitude 19:14:18 70° 7° (N) 1,617 9.3 -1.6°
Drops below altitude 10° 19:23:48 10° 91° (E) 3,769 10.5 -3.2°
Sets 19:26:57 0° 94° (E) 4,776 11.0 -3.7°
Enters shadow 19:26:58 - 94° (E) 4,779 11.0 -3.7°
